Retour au catalogue

STARLINK-35474

ActifCommunicationsVLEO
NORAD 66437·PAYLOAD·🇺🇸 United States

Lancé Nov 11, 2025 depuis Cape Canaveral Space Force Station

Loading…

Prochains Passages (prochaines 24 heures)

TLE

FraisSource: CelesTrak SupGP

Époque: Sep 15, 2026, 02:30 UTC

1 66437C 25259R   26258.10465278  .00010387  00000+0  37613-3 0  2584
2 66437  43.0021 284.7858 0001714 267.6656 252.4683 15.27578611    15

Suivez STARLINK-35474 en temps réel avec AllMySat

Download on the App Store